Location: ?ejeti?ky
(50.4060°N, 14.9016°E)
Time: 21:39:14
(UTC+00:00)

Resurs 1-4 Rocket - Pass Details

Date: 07 June 2020
Orbit: 800 x 813 km, 98.6° (Epoch: 04 July)

Event Time Altitude Azimuth Distance (km) Brightness Sun altitude
Rises 01:32:25 0° 10° (N) 3,338 6.6 -9.4°
Reaches altitude 10° 01:34:51 10° 5° (N) 2,405 5.6 -9.1°
Maximum altitude 01:39:53 45° 294° (WNW) 1,095 2.7 -8.7°
Drops below altitude 10° 01:44:54 10° 223° (SW) 2,396 3.9 -8.2°
Enters shadow 01:44:54 10° 223° (SW) 2,400 3.9 -8.2°
